Location: Chochol
(49.7771°N, 14.9780°E)
Time: 20:29:08
(UTC+00:00)

N. Korean satellite - Visible Passes

Search period start: 05 March 2021 00:00
Search period end: 15 March 2021 00:00
Orbit: 451 x 502 km, 97.2° (Epoch: 05 March)

Date Brightness Start Highest point End Pass type
(mag) Time Alt. Az. Time Alt. Az. Time Alt. Az.
05 Mar 6.7 04:30:36 10° NNE 04:34:10 76° ESE 04:37:44 10° S visible
06 Mar 8.2 04:04:01 10° NNE 04:07:20 36° E 04:10:40 10° SSE visible
07 Mar 9.5 03:37:49 10° NE 03:40:25 19° E 03:43:01 10° SE visible
08 Mar 6.5 04:43:34 10° N 04:47:08 75° WNW 04:50:44 10° SSW visible
09 Mar 7.5 04:16:50 10° NNE 04:20:20 52° E 04:23:53 10° S visible
10 Mar 9.0 03:50:22 10° NE 03:53:26 26° E 03:56:31 10° SSE visible
11 Mar 9.8 03:24:30 10° ENE 03:26:26 14° E 03:28:22 10° ESE visible
12 Mar 6.8 04:29:39 10° NNE 04:33:16 75° ESE 04:36:54 10° S visible
13 Mar 8.3 04:03:01 10° NNE 04:06:23 36° E 04:09:46 10° SSE visible
14 Mar 9.5 03:36:46 10° NE 03:39:25 19° E 03:42:05 10° SE visible
